Location: Crab Orchard
(37.7292°N, 88.8042°W)
Time: 23:01:42
(UTC+00:00)

Cosmos 1263 - Pass Details

Date: 08 December 2019
Orbit: 386 x 1339 km, 82.9° (Epoch: 19 January)

Event Time Altitude Azimuth Distance (km) Brightness Sun altitude
Rises 23:48:33 0° 186° (S) 2,504 8.5 -13.9°
Reaches altitude 10° 23:50:44 10° 187° (S) 1,544 7.4 -14.4°
Maximum altitude 23:53:59 86° 272° (W) 409 4.1 -15.0°
Enters shadow 23:56:44 12° 6° (N) 1,318 6.5 -15.5°
